Location: Wellington
(41.3000°S, 174.7830°E)
Time: 20:10:43
(UTC+12:00)

Cosmos 2263 Rocket - Pass Details

Date: 24 January 2019
Orbit: 825 x 847 km, 71.0° (Epoch: 21 April)

Event Time Altitude Azimuth Distance (km) Brightness Sun altitude
Rises 23:21:18 0° 218° (SW) 3,416 6.9 -22.2°
Reaches altitude 10° 23:24:17 10° 233° (SW) 2,478 5.6 -22.5°
Maximum altitude 23:28:27 21° 280° (W) 1,798 4.1 -23.0°
Enters shadow 23:31:40 14° 321° (NW) 2,218 4.2 -23.3°
